Columbia Owens, SC

5:05 AM EDT on April 24, 2017 (GMT -0400)
Columbia Owens Downtown

Weather History for KCUB - November, 2013

Change the Weather History Date:

Saturday, November 2, 2013

  Actual Average Record
Temperature  
Mean Temperature 65 °F 60 °F  
Max Temperature 75 °F 71 °F 82 °F (2003)
Min Temperature 54 °F 48 °F 36 °F (2014)
Degree Days  
Heating Degree Days 0 6  
Month to date heating degree days 0 12  
Since 1 July heating degree days 60 101  
Cooling Degree Days 0 1  
Month to date cooling degree days 7 2  
Year to date cooling degree days 2211 2244  
Growing Degree Days 15 (Base 50)    
Moisture  
Dew Point 51 °F    
Average Humidity 68    
Maximum Humidity 97    
Minimum Humidity 31    
Precipitation  
Precipitation 0.00 in 0.08 in 0.88 in (2015)
Month to date precipitation 1.01 0.16  
Year to date precipitation 46.00 39.37  
Sea Level Pressure  
Sea Level Pressure 29.84 in    
Wind  
Wind Speed 5 mph (WNW)    
Max Wind Speed 14 mph    
Max Gust Speed 21 mph    
Visibility 10 miles    
Events      
T = Trace of Precipitation, MM = Missing Value Source: NWS Daily Summary

Daily Weather History Graph

Daily Weather History Graph

Search for Another Location

Airport or City:

Trip Planner

Search our weather history database for the weather conditions in past years. The results will help you decide how hot, cold, wet, or windy it might be!

Date:

Astronomy

Nov. 02, 2013 Rise Set
Actual Time 7:44 AM EDT 6:30 PM EDT
Civil Twilight 7:18 AM EDT 6:55 PM EDT
Nautical Twilight 6:49 AM EDT 7:25 PM EDT
Astronomical Twilight 6:19 AM EDT 7:54 PM EDT
Moon 6:42 AM EDT (11/2) 5:59 PM EDT (11/2)
Length of Visible Light 11h 37m
Length of Day
10h 45m
Waning Crescent, 1% of the Moon is Illuminated
Nov 2
Waning Crescent
Nov 3
New
Nov 10
First Quarter
Nov 17
Full
Nov 25
Last Quarter

Hourly Weather History & Observations

Time (EDT) Temp. Dew Point Humidity Pressure Visibility Wind Dir Wind Speed Gust Speed Precip Events Conditions
12:53 AM 66.0 °F 62.1 °F 87% 29.76 in 10.0 mi West 6.9 mph - N/A   Overcast
1:46 AM 64.4 °F 62.6 °F 94% 29.77 in 10.0 mi WSW 3.5 mph - N/A   Partly Cloudy
1:53 AM 63.0 °F 61.0 °F 93% 29.76 in 10.0 mi WSW 3.5 mph - N/A   Partly Cloudy
2:53 AM 62.1 °F 61.0 °F 96% 29.78 in 7.0 mi Calm Calm - N/A   Scattered Clouds
3:01 AM 62.6 °F 60.8 °F 94% 29.77 in 7.0 mi Calm Calm - N/A   Mostly Cloudy
3:11 AM 62.6 °F 60.8 °F 94% 29.77 in 7.0 mi Calm Calm - N/A   Scattered Clouds
3:53 AM 62.1 °F 60.1 °F 93% 29.78 in 10.0 mi West 3.5 mph - N/A   Clear
4:53 AM 62.1 °F 59.0 °F 90% 29.78 in 10.0 mi West 4.6 mph - N/A   Clear
5:53 AM 61.0 °F 59.0 °F 93% 29.79 in 9.0 mi West 4.6 mph - N/A   Clear
6:53 AM 61.0 °F 57.0 °F 87% 29.81 in 10.0 mi NW 5.8 mph - N/A   Clear
7:53 AM 60.1 °F 57.0 °F 90% 29.82 in 10.0 mi Calm Calm - N/A   Clear
8:53 AM 60.1 °F 55.0 °F 83% 29.85 in 10.0 mi NW 3.5 mph - N/A   Clear
9:53 AM 61.0 °F 55.0 °F 81% 29.87 in 10.0 mi West 3.5 mph - N/A   Clear
10:53 AM 64.9 °F 53.1 °F 65% 29.86 in 10.0 mi Variable 5.8 mph - N/A   Clear
11:53 AM 68.0 °F 48.9 °F 50% 29.86 in 10.0 mi West 4.6 mph - N/A   Clear
12:53 PM 71.1 °F 45.0 °F 39% 29.85 in 10.0 mi West 12.7 mph - N/A   Clear
1:53 PM 71.1 °F 44.1 °F 38% 29.83 in 10.0 mi Variable 5.8 mph - N/A   Clear
2:53 PM 73.0 °F 42.1 °F 33% 29.81 in 10.0 mi WNW 9.2 mph 19.6 mph N/A   Clear
3:53 PM 73.9 °F 43.0 °F 33% 29.81 in 10.0 mi West 10.4 mph 16.1 mph N/A   Clear
4:53 PM 73.0 °F 41.0 °F 31% 29.81 in 10.0 mi WNW 9.2 mph 17.3 mph N/A   Partly Cloudy
5:53 PM 72.0 °F 42.1 °F 34% 29.82 in 10.0 mi West 12.7 mph - N/A   Clear
6:53 PM 64.9 °F 39.9 °F 40% 29.86 in 10.0 mi NW 3.5 mph - N/A   Clear
7:53 PM 59.0 °F 45.0 °F 60% 29.90 in 10.0 mi Calm Calm - N/A   Partly Cloudy
8:53 PM 57.9 °F 46.0 °F 65% 29.93 in 10.0 mi Calm Calm - N/A   Clear
9:53 PM 57.9 °F 44.1 °F 60% 29.95 in 10.0 mi Calm Calm - N/A   Clear
10:53 PM 59.0 °F 39.9 °F 49% 29.98 in 10.0 mi NW 6.9 mph - N/A   Clear
11:53 PM 55.9 °F 42.1 °F 60% 30.00 in 10.0 mi NNW 3.5 mph - N/A   Clear